Location: Sungai Bunut
(2.6333°N, 113.7333°E)
Time: 09:03:55
(UTC+00:00)

Courier 1B - Pass Details

Date: 08 December 2023
Orbit: 962 x 1209 km, 28.3° (Epoch: 03 March)

Event Time Altitude Azimuth Distance (km) Brightness Sun altitude
Rises 10:47:04 0° 259° (WSW) 3,722 12.6 -8.0°
Reaches altitude 10° 10:51:09 10° 235° (SW) 2,820 11.5 -8.9°
Maximum altitude 10:54:41 14° 204° (SSW) 2,546 10.4 -9.7°
Drops below altitude 10° 10:58:20 10° 172° (S) 2,916 10.2 -10.6°
Sets 11:02:43 0° 149° (SSE) 3,933 10.6 -11.6°
